Location: Pedholt
(56.0260°N, 10.2097°E)
Time: 00:16:25
(UTC+00:00)

A-11 Canister half - Pass Details

Date: 04 August 2021
Orbit: 1515 x 1685 km, 47.2° (Epoch: 19 September)

Event Time Altitude Azimuth Distance (km) Brightness Sun altitude
Rises 21:53:43 0° 283° (WNW) 4,899 12.2 -14.5°
Reaches altitude 10° 21:57:37 10° 271° (W) 3,928 11.4 -14.7°
Maximum altitude 22:05:02 24° 223° (SW) 2,979 10.2 -15.1°
Enters shadow 22:10:17 16° 185° (S) 3,498 10.3 -15.3°
Drops below altitude 10° 22:12:28 10° 175° (S) 3,942 - -15.4°
Sets 22:16:26 0° 162° (SSE) 4,921 - -15.6°
